Time,TemperatureF,DewpointF,PressureIn,WindDirection,WindDirectionDegrees,WindSpeedMPH,WindSpeedGustMPH,Humidity,HourlyPrecipIn,Conditions,Clouds,dailyrainin,SoftwareType,DateUTC
2013-08-12 00:05:00,83.3,76.9,30.11,SSE,162,7.0,11.0,81,0.00,,,0.00,Wunderground v.1.15,2013-08-12 04:05:00,
2013-08-12 00:10:00,83.4,77.0,30.11,South,182,8.0,8.0,81,0.00,,,0.00,Wunderground v.1.15,2013-08-12 04:10:00,
2013-08-12 00:15:00,83.4,77.0,30.11,South,189,8.0,10.0,81,0.00,,,0.00,Wunderground v.1.15,2013-08-12 04:15:00,
2013-08-12 00:20:00,83.4,77.3,30.10,South,169,7.0,7.0,82,0.00,,,0.00,Wunderground v.1.15,2013-08-12 04:20:00,
2013-08-12 00:25:00,83.4,77.3,30.10,South,185,7.0,11.0,82,0.00,,,0.00,Wunderground v.1.15,2013-08-12 04:25:00,
2013-08-12 00:30:00,83.3,77.2,30.10,South,182,6.0,11.0,82,0.00,,,0.00,Wunderground v.1.15,2013-08-12 04:30:00,
2013-08-12 00:35:00,83.4,77.3,30.10,South,183,7.0,11.0,82,0.00,,,0.00,Wunderground v.1.15,2013-08-12 04:35:00,
2013-08-12 00:40:00,83.4,77.7,30.10,SSE,167,8.0,8.0,83,0.00,,,0.00,Wunderground v.1.15,2013-08-12 04:40:00,
2013-08-12 00:45:00,83.4,77.7,30.10,SSE,167,7.0,10.0,83,0.00,,,0.00,Wunderground v.1.15,2013-08-12 04:45:00,
2013-08-12 00:50:00,83.5,77.8,30.10,South,175,8.0,11.0,83,0.00,,,0.00,Wunderground v.1.15,2013-08-12 04:50:00,
2013-08-12 00:55:00,83.5,77.8,30.10,South,182,8.0,11.0,83,0.00,,,0.00,Wunderground v.1.15,2013-08-12 04:55:00,
2013-08-12 01:00:00,83.6,77.9,30.11,SSE,161,9.0,11.0,83,0.00,,,0.00,Wunderground v.1.15,2013-08-12 05:00:00,
2013-08-12 01:05:00,83.7,78.0,30.10,SSE,157,8.0,11.0,83,0.00,,,0.00,Wunderground v.1.15,2013-08-12 05:05:00,
2013-08-12 01:10:00,83.8,78.4,30.10,South,171,9.0,14.0,84,0.00,,,0.00,Wunderground v.1.15,2013-08-12 05:10:00,
2013-08-12 01:20:00,83.7,78.7,30.10,SSE,161,10.0,16.0,85,0.00,,,0.00,Wunderground v.1.15,2013-08-12 05:20:00,
2013-08-12 01:25:00,83.7,79.4,30.10,SSE,154,9.0,16.0,87,0.00,,,0.00,Wunderground v.1.15,2013-08-12 05:25:00,
2013-08-12 01:35:00,83.4,79.1,30.10,South,175,9.0,11.0,87,0.00,,,0.00,Wunderground v.1.15,2013-08-12 05:35:00,
2013-08-12 01:40:00,83.4,79.1,30.10,South,180,10.0,10.0,87,0.00,,,0.00,Wunderground v.1.15,2013-08-12 05:40:00,
2013-08-12 01:50:00,83.5,79.6,30.10,South,190,10.0,15.0,88,0.00,,,0.00,Wunderground v.1.15,2013-08-12 05:50:00,
2013-08-12 01:55:00,83.3,79.4,30.09,SSE,160,10.0,15.0,88,0.00,,,0.00,Wunderground v.1.15,2013-08-12 05:55:00,
2013-08-12 02:00:00,83.1,78.8,30.10,South,178,10.0,12.0,87,0.00,,,0.00,Wunderground v.1.15,2013-08-12 06:00:00,
2013-08-12 02:10:00,83.1,78.8,30.09,SSW,194,8.0,11.0,87,0.00,,,0.00,Wunderground v.1.15,2013-08-12 06:10:00,
2013-08-12 02:20:00,83.1,78.8,30.09,South,188,7.0,7.0,87,0.00,,,0.00,Wunderground v.1.15,2013-08-12 06:20:00,
2013-08-12 02:25:00,83.0,78.4,30.09,South,178,8.0,8.0,86,0.00,,,0.00,Wunderground v.1.15,2013-08-12 06:25:00,
2013-08-12 02:30:00,83.2,78.2,30.09,South,169,8.0,11.0,85,0.00,,,0.00,Wunderground v.1.15,2013-08-12 06:30:00,
2013-08-12 02:35:00,83.3,78.0,30.08,South,169,7.0,11.0,84,0.00,,,0.00,Wunderground v.1.15,2013-08-12 06:35:00,
2013-08-12 02:45:00,83.3,78.0,30.08,South,191,7.0,8.0,84,0.00,,,0.00,Wunderground v.1.15,2013-08-12 06:45:00,
2013-08-12 02:50:00,83.5,78.2,30.08,South,190,8.0,11.0,84,0.00,,,0.00,Wunderground v.1.15,2013-08-12 06:50:00,
2013-08-12 02:55:00,83.6,78.6,30.08,South,173,8.0,11.0,85,0.00,,,0.00,Wunderground v.1.15,2013-08-12 06:55:00,
2013-08-12 03:05:00,83.4,78.8,30.08,South,180,7.0,11.0,86,0.00,,,0.00,Wunderground v.1.15,2013-08-12 07:05:00,
2013-08-12 03:10:00,83.3,78.7,30.08,South,187,6.0,11.0,86,0.00,,,0.00,Wunderground v.1.15,2013-08-12 07:10:00,
2013-08-12 03:20:00,83.2,78.9,30.08,South,182,5.0,5.0,87,0.00,,,0.00,Wunderground v.1.15,2013-08-12 07:20:00,
2013-08-12 03:25:00,83.1,78.8,30.08,South,184,5.0,11.0,87,0.00,,,0.00,Wunderground v.1.15,2013-08-12 07:25:00,
2013-08-12 03:35:00,83.1,79.2,30.07,SSW,197,5.0,11.0,88,0.00,,,0.00,Wunderground v.1.15,2013-08-12 07:35:00,
2013-08-12 03:40:00,83.1,79.2,30.07,South,182,5.0,5.0,88,0.00,,,0.00,Wunderground v.1.15,2013-08-12 07:40:00,
2013-08-12 03:50:00,83.1,79.2,30.07,SSE,159,5.0,11.0,88,0.00,,,0.00,Wunderground v.1.15,2013-08-12 07:50:00,
2013-08-12 03:55:00,83.2,79.3,30.07,SSE,162,5.0,11.0,88,0.00,,,0.00,Wunderground v.1.15,2013-08-12 07:55:00,
2013-08-12 04:05:00,83.4,79.1,30.07,SSE,167,6.0,11.0,87,0.00,,,0.00,Wunderground v.1.15,2013-08-12 08:05:00,
2013-08-12 04:10:00,83.4,79.1,30.08,South,173,5.0,5.0,87,0.00,,,0.00,Wunderground v.1.15,2013-08-12 08:10:00,
2013-08-12 04:20:00,83.5,79.2,30.08,South,170,5.0,5.0,87,0.00,,,0.00,Wunderground v.1.15,2013-08-12 08:20:00,
2013-08-12 04:25:00,83.5,78.9,30.08,South,189,5.0,11.0,86,0.00,,,0.00,Wunderground v.1.15,2013-08-12 08:25:00,
2013-08-12 04:30:00,83.5,78.9,30.08,South,186,5.0,11.0,86,0.00,,,0.00,Wunderground v.1.15,2013-08-12 08:30:00,
2013-08-12 04:40:00,83.4,78.8,30.08,South,191,5.0,11.0,86,0.00,,,0.00,Wunderground v.1.15,2013-08-12 08:40:00,
2013-08-12 04:50:00,83.3,78.7,30.07,South,188,6.0,6.0,86,0.00,,,0.00,Wunderground v.1.15,2013-08-12 08:50:00,
2013-08-12 04:55:00,83.3,79.0,30.07,SSW,195,6.0,11.0,87,0.00,,,0.00,Wunderground v.1.15,2013-08-12 08:55:00,
2013-08-12 05:00:00,83.2,78.9,30.07,South,169,7.0,7.0,87,0.00,,,0.00,Wunderground v.1.15,2013-08-12 09:00:00,
2013-08-12 05:05:00,83.4,79.1,30.07,SSW,192,7.0,9.0,87,0.00,,,0.00,Wunderground v.1.15,2013-08-12 09:05:00,
2013-08-12 05:15:00,83.4,79.1,30.07,SSE,163,7.0,11.0,87,0.00,,,0.00,Wunderground v.1.15,2013-08-12 09:15:00,
2013-08-12 05:20:00,83.6,79.3,30.07,South,171,6.0,11.0,87,0.00,,,0.00,Wunderground v.1.15,2013-08-12 09:20:00,
2013-08-12 05:30:00,83.7,79.4,30.08,South,174,6.0,11.0,87,0.00,,,0.00,Wunderground v.1.15,2013-08-12 09:30:00,
2013-08-12 05:35:00,83.6,78.6,30.08,South,179,6.0,11.0,85,0.00,,,0.00,Wunderground v.1.15,2013-08-12 09:35:00,
2013-08-12 05:40:00,83.5,78.5,30.08,SSW,198,6.0,11.0,85,0.00,,,0.00,Wunderground v.1.15,2013-08-12 09:40:00,
2013-08-12 05:50:00,83.6,78.6,30.07,South,170,6.0,11.0,85,0.00,,,0.00,Wunderground v.1.15,2013-08-12 09:50:00,
2013-08-12 05:55:00,83.8,78.8,30.08,South,184,6.0,11.0,85,0.00,,,0.00,Wunderground v.1.15,2013-08-12 09:55:00,
2013-08-12 06:05:00,83.9,78.5,30.08,South,171,6.0,11.0,84,0.00,,,0.00,Wunderground v.1.15,2013-08-12 10:05:00,
2013-08-12 06:10:00,83.9,78.5,30.07,SSE,163,6.0,6.0,84,0.00,,,0.00,Wunderground v.1.15,2013-08-12 10:10:00,
2013-08-12 06:15:00,83.9,78.5,30.08,South,180,6.0,11.0,84,0.00,,,0.00,Wunderground v.1.15,2013-08-12 10:15:00,
2013-08-12 06:25:00,83.8,78.4,30.08,South,171,7.0,11.0,84,0.00,,,0.00,Wunderground v.1.15,2013-08-12 10:25:00,
2013-08-12 06:30:00,83.8,78.4,30.08,SSW,200,7.0,11.0,84,0.00,,,0.00,Wunderground v.1.15,2013-08-12 10:30:00,
2013-08-12 06:40:00,83.8,78.4,30.08,South,190,7.0,11.0,84,0.00,,,0.00,Wunderground v.1.15,2013-08-12 10:40:00,
2013-08-12 06:45:00,83.8,78.4,30.08,South,187,9.0,11.0,84,0.00,,,0.00,Wunderground v.1.15,2013-08-12 10:45:00,
2013-08-12 06:55:00,83.9,78.2,30.08,SSW,196,10.0,11.0,83,0.00,,,0.00,Wunderground v.1.15,2013-08-12 10:55:00,
2013-08-12 07:05:00,84.1,78.4,30.08,South,189,9.0,11.0,83,0.00,,,0.00,Wunderground v.1.15,2013-08-12 11:05:00,
2013-08-12 07:10:00,83.9,78.2,30.08,SSW,200,9.0,11.0,83,0.00,,,0.00,Wunderground v.1.15,2013-08-12 11:10:00,
2013-08-12 07:20:00,83.9,77.8,30.08,SSW,209,9.0,11.0,82,0.00,,,0.00,Wunderground v.1.15,2013-08-12 11:20:00,
2013-08-12 07:25:00,83.9,77.8,30.08,SSW,196,9.0,12.0,82,0.00,,,0.00,Wunderground v.1.15,2013-08-12 11:25:00,
2013-08-12 07:35:00,83.9,77.8,30.08,SSW,197,9.0,11.0,82,0.00,,,0.00,Wunderground v.1.15,2013-08-12 11:35:00,
2013-08-12 07:40:00,84.0,78.3,30.09,SW,214,7.0,7.0,83,0.00,,,0.00,Wunderground v.1.15,2013-08-12 11:40:00,
2013-08-12 07:50:00,84.1,78.0,30.09,SSW,197,7.0,11.0,82,0.00,,,0.00,Wunderground v.1.15,2013-08-12 11:50:00,
2013-08-12 07:55:00,84.1,77.6,30.09,South,189,8.0,11.0,81,0.00,,,0.00,Wunderground v.1.15,2013-08-12 11:55:00,
2013-08-12 08:05:00,84.5,78.4,30.09,SSW,196,8.0,11.0,82,0.00,,,0.00,Wunderground v.1.15,2013-08-12 12:05:00,
2013-08-12 08:10:00,84.6,78.5,30.08,SSW,194,8.0,11.0,82,0.00,,,0.00,Wunderground v.1.15,2013-08-12 12:10:00,
2013-08-12 08:15:00,84.7,78.6,30.09,South,175,8.0,11.0,82,0.00,,,0.00,Wunderground v.1.15,2013-08-12 12:15:00,
2013-08-12 08:25:00,84.9,78.8,30.09,South,191,7.0,11.0,82,0.00,,,0.00,Wunderground v.1.15,2013-08-12 12:25:00,
2013-08-12 08:30:00,85.2,78.7,30.09,South,171,6.0,11.0,81,0.00,,,0.00,Wunderground v.1.15,2013-08-12 12:30:00,
2013-08-12 08:35:00,85.7,78.8,30.09,South,178,5.0,11.0,80,0.00,,,0.00,Wunderground v.1.15,2013-08-12 12:35:00,
2013-08-12 08:45:00,86.1,78.8,30.09,SSW,194,7.0,11.0,79,0.00,,,0.00,Wunderground v.1.15,2013-08-12 12:45:00,
2013-08-12 08:50:00,86.4,79.1,30.09,SSW,192,7.0,11.0,79,0.00,,,0.00,Wunderground v.1.15,2013-08-12 12:50:00,
2013-08-12 08:55:00,86.6,79.7,30.09,SSW,197,7.0,11.0,80,0.00,,,0.00,Wunderground v.1.15,2013-08-12 12:55:00,
2013-08-12 09:05:00,86.8,79.1,30.09,SSW,192,6.0,11.0,78,0.00,,,0.00,Wunderground v.1.15,2013-08-12 13:05:00,
2013-08-12 09:10:00,86.8,79.1,30.09,SSW,195,6.0,11.0,78,0.00,,,0.00,Wunderground v.1.15,2013-08-12 13:10:00,
2013-08-12 09:20:00,86.7,78.6,30.10,South,186,6.0,6.0,77,0.00,,,0.00,Wunderground v.1.15,2013-08-12 13:20:00,
2013-08-12 09:25:00,86.8,78.7,30.10,SSW,196,7.0,9.0,77,0.00,,,0.00,Wunderground v.1.15,2013-08-12 13:25:00,
2013-08-12 09:35:00,87.1,79.4,30.10,South,186,7.0,11.0,78,0.00,,,0.00,Wunderground v.1.15,2013-08-12 13:35:00,
2013-08-12 09:40:00,87.3,79.6,30.10,South,187,7.0,7.0,78,0.00,,,0.00,Wunderground v.1.15,2013-08-12 13:40:00,
2013-08-12 09:45:00,87.4,79.3,30.10,SSW,195,7.0,10.0,77,0.00,,,0.00,Wunderground v.1.15,2013-08-12 13:45:00,
2013-08-12 09:55:00,87.6,79.9,30.10,South,186,8.0,11.0,78,0.00,,,0.00,Wunderground v.1.15,2013-08-12 13:55:00,
2013-08-12 10:00:00,87.3,79.6,30.10,South,183,6.0,11.0,78,0.00,,,0.00,Wunderground v.1.15,2013-08-12 14:00:00,
2013-08-12 10:05:00,87.2,79.1,30.10,SE,144,6.0,11.0,77,0.00,,,0.00,Wunderground v.1.15,2013-08-12 14:05:00,
2013-08-12 10:10:00,87.6,79.9,30.10,South,171,7.0,7.0,78,0.00,,,0.00,Wunderground v.1.15,2013-08-12 14:10:00,
2013-08-12 10:20:00,88.0,79.5,30.09,SSW,197,8.0,11.0,76,0.00,,,0.00,Wunderground v.1.15,2013-08-12 14:20:00,
2013-08-12 10:25:00,88.0,79.5,30.09,SSW,198,8.0,11.0,76,0.00,,,0.00,Wunderground v.1.15,2013-08-12 14:25:00,
2013-08-12 10:35:00,88.1,79.2,30.10,SW,218,7.0,11.0,75,0.00,,,0.00,Wunderground v.1.15,2013-08-12 14:35:00,
2013-08-12 10:40:00,87.7,79.6,30.10,SSW,199,7.0,11.0,77,0.00,,,0.00,Wunderground v.1.15,2013-08-12 14:40:00,
2013-08-12 10:50:00,87.7,79.6,30.10,SSW,209,6.0,11.0,77,0.00,,,0.00,Wunderground v.1.15,2013-08-12 14:50:00,
2013-08-12 10:55:00,87.5,78.6,30.11,SSW,196,6.0,11.0,75,0.00,,,0.00,Wunderground v.1.15,2013-08-12 14:55:00,
2013-08-12 11:05:00,87.7,78.8,30.10,SSW,204,7.0,11.0,75,0.00,,,0.00,Wunderground v.1.15,2013-08-12 15:05:00,
2013-08-12 11:10:00,88.3,79.8,30.10,South,173,6.0,11.0,76,0.00,,,0.00,Wunderground v.1.15,2013-08-12 15:10:00,
2013-08-12 11:20:00,87.9,78.6,30.11,SW,229,6.0,11.0,74,0.00,,,0.00,Wunderground v.1.15,2013-08-12 15:20:00,
2013-08-12 11:25:00,88.3,79.4,30.11,SW,219,7.0,11.0,75,0.00,,,0.00,Wunderground v.1.15,2013-08-12 15:25:00,
2013-08-12 11:30:00,88.1,79.6,30.11,South,184,7.0,11.0,76,0.00,,,0.00,Wunderground v.1.15,2013-08-12 15:30:00,
2013-08-12 11:35:00,87.9,79.4,30.11,SW,232,7.0,11.0,76,0.00,,,0.00,Wunderground v.1.15,2013-08-12 15:35:00,
2013-08-12 11:45:00,88.0,79.9,30.11,SSE,154,7.0,11.0,77,0.00,,,0.00,Wunderground v.1.15,2013-08-12 15:45:00,
2013-08-12 11:50:00,88.7,80.6,30.11,SW,219,7.0,11.0,77,0.00,,,0.00,Wunderground v.1.15,2013-08-12 15:50:00,
2013-08-12 12:00:00,88.7,79.3,30.11,SSW,198,8.0,11.0,74,0.00,,,0.00,Wunderground v.1.15,2013-08-12 16:00:00,
2013-08-12 12:05:00,88.5,79.6,30.11,SSW,204,9.0,11.0,75,0.00,,,0.00,Wunderground v.1.15,2013-08-12 16:05:00,
2013-08-12 12:10:00,88.4,79.5,30.11,SSW,207,10.0,10.0,75,0.00,,,0.00,Wunderground v.1.15,2013-08-12 16:10:00,
2013-08-12 12:20:00,88.4,79.5,30.11,SW,225,8.0,8.0,75,0.00,,,0.00,Wunderground v.1.15,2013-08-12 16:20:00,
2013-08-12 12:25:00,88.4,78.2,30.11,SSW,207,9.0,10.0,72,0.00,,,0.00,Wunderground v.1.15,2013-08-12 16:25:00,
2013-08-12 12:35:00,89.1,80.1,30.10,SSW,206,9.0,11.0,75,0.00,,,0.00,Wunderground v.1.15,2013-08-12 16:35:00,
2013-08-12 12:40:00,89.2,79.8,30.10,SSW,201,9.0,11.0,74,0.00,,,0.00,Wunderground v.1.15,2013-08-12 16:40:00,
2013-08-12 12:50:00,89.2,79.0,30.10,SSW,212,8.0,8.0,72,0.00,,,0.00,Wunderground v.1.15,2013-08-12 16:50:00,
2013-08-12 12:55:00,88.9,79.1,30.10,SSW,199,8.0,9.0,73,0.00,,,0.00,Wunderground v.1.15,2013-08-12 16:55:00,
2013-08-12 13:05:00,89.4,79.2,30.10,South,191,8.0,11.0,72,0.00,,,0.00,Wunderground v.1.15,2013-08-12 17:05:00,
2013-08-12 13:10:00,89.3,79.5,30.10,SSW,200,8.0,12.0,73,0.00,,,0.00,Wunderground v.1.15,2013-08-12 17:10:00,
2013-08-12 13:20:00,88.9,79.5,30.09,SSW,206,10.0,11.0,74,0.00,,,0.00,Wunderground v.1.15,2013-08-12 17:20:00,
2013-08-12 13:30:00,88.9,79.9,30.09,SW,223,9.0,11.0,75,0.00,,,0.00,Wunderground v.1.15,2013-08-12 17:30:00,
2013-08-12 13:35:00,88.9,79.1,30.09,SW,233,9.0,11.0,73,0.00,,,0.00,Wunderground v.1.15,2013-08-12 17:35:00,
2013-08-12 13:45:00,89.0,79.2,30.10,SW,221,9.0,11.0,73,0.00,,,0.00,Wunderground v.1.15,2013-08-12 17:45:00,
2013-08-12 13:50:00,88.9,79.5,30.10,SW,224,9.0,12.0,74,0.00,,,0.00,Wunderground v.1.15,2013-08-12 17:50:00,
2013-08-12 13:55:00,89.3,79.5,30.10,SSW,207,8.0,12.0,73,0.00,,,0.00,Wunderground v.1.15,2013-08-12 17:55:00,
2013-08-12 14:05:00,89.3,79.1,30.10,SW,220,8.0,12.0,72,0.00,,,0.00,Wunderground v.1.15,2013-08-12 18:05:00,
2013-08-12 14:10:00,89.5,80.1,30.10,SW,232,8.0,8.0,74,0.00,,,0.00,Wunderground v.1.15,2013-08-12 18:10:00,
2013-08-12 14:20:00,89.0,78.8,30.09,WSW,238,8.0,11.0,72,0.00,,,0.00,Wunderground v.1.15,2013-08-12 18:20:00,
2013-08-12 14:30:00,88.9,79.1,30.09,SSW,202,8.0,11.0,73,0.00,,,0.00,Wunderground v.1.15,2013-08-12 18:30:00,
2013-08-12 14:35:00,88.9,79.5,30.09,SSW,211,7.0,11.0,74,0.00,,,0.00,Wunderground v.1.15,2013-08-12 18:35:00,
2013-08-12 14:45:00,89.3,79.9,30.08,SW,219,9.0,11.0,74,0.00,,,0.00,Wunderground v.1.15,2013-08-12 18:45:00,
2013-08-12 14:50:00,89.7,79.9,30.08,SW,225,8.0,11.0,73,0.00,,,0.00,Wunderground v.1.15,2013-08-12 18:50:00,
2013-08-12 15:00:00,89.1,79.7,30.08,SW,229,9.0,9.0,74,0.00,,,0.00,Wunderground v.1.15,2013-08-12 19:00:00,
2013-08-12 15:05:00,88.9,79.5,30.08,SW,222,9.0,11.0,74,0.00,,,0.00,Wunderground v.1.15,2013-08-12 19:05:00,
2013-08-12 15:10:00,89.2,79.8,30.08,SW,219,9.0,12.0,74,0.00,,,0.00,Wunderground v.1.15,2013-08-12 19:10:00,
2013-08-12 15:20:00,89.3,79.5,30.07,SW,232,8.0,8.0,73,0.00,,,0.00,Wunderground v.1.15,2013-08-12 19:20:00,
2013-08-12 15:25:00,89.2,79.8,30.07,SW,232,7.0,11.0,74,0.00,,,0.00,Wunderground v.1.15,2013-08-12 19:25:00,
2013-08-12 15:35:00,89.4,80.0,30.06,SW,225,7.0,11.0,74,0.00,,,0.00,Wunderground v.1.15,2013-08-12 19:35:00,
2013-08-12 15:40:00,89.4,80.4,30.06,SSW,211,7.0,7.0,75,0.00,,,0.00,Wunderground v.1.15,2013-08-12 19:40:00,
2013-08-12 15:50:00,89.4,80.0,30.06,SW,223,7.0,7.0,74,0.00,,,0.00,Wunderground v.1.15,2013-08-12 19:50:00,
2013-08-12 15:55:00,88.8,79.4,30.06,SW,233,8.0,8.0,74,0.00,,,0.00,Wunderground v.1.15,2013-08-12 19:55:00,
2013-08-12 16:05:00,89.2,79.8,30.06,WSW,246,7.0,11.0,74,0.00,,,0.00,Wunderground v.1.15,2013-08-12 20:05:00,
2013-08-12 16:10:00,89.3,79.9,30.06,SW,232,8.0,11.0,74,0.00,,,0.00,Wunderground v.1.15,2013-08-12 20:10:00,
2013-08-12 16:20:00,88.6,79.7,30.05,SW,232,9.0,11.0,75,0.00,,,0.00,Wunderground v.1.15,2013-08-12 20:20:00,
2013-08-12 16:25:00,88.3,79.0,30.05,SW,225,10.0,11.0,74,0.00,,,0.00,Wunderground v.1.15,2013-08-12 20:25:00,
2013-08-12 16:30:00,88.4,79.5,30.05,WSW,241,9.0,9.0,75,0.00,,,0.00,Wunderground v.1.15,2013-08-12 20:30:00,
2013-08-12 16:40:00,88.4,79.5,30.05,SW,219,8.0,11.0,75,0.00,,,0.00,Wunderground v.1.15,2013-08-12 20:40:00,
2013-08-12 16:45:00,88.2,79.3,30.05,WSW,246,8.0,11.0,75,0.00,,,0.00,Wunderground v.1.15,2013-08-12 20:45:00,
2013-08-12 16:50:00,88.2,79.7,30.05,SSW,192,8.0,12.0,76,0.00,,,0.00,Wunderground v.1.15,2013-08-12 20:50:00,
2013-08-12 17:00:00,87.6,79.1,30.05,SW,215,8.0,11.0,76,0.00,,,0.00,Wunderground v.1.15,2013-08-12 21:00:00,
2013-08-12 17:05:00,87.3,79.2,30.05,SSW,211,8.0,11.0,77,0.00,,,0.00,Wunderground v.1.15,2013-08-12 21:05:00,
2013-08-12 17:10:00,87.5,79.8,30.05,SW,223,7.0,11.0,78,0.00,,,0.00,Wunderground v.1.15,2013-08-12 21:10:00,
2013-08-12 17:20:00,87.0,79.3,30.05,SW,236,8.0,8.0,78,0.00,,,0.00,Wunderground v.1.15,2013-08-12 21:20:00,
2013-08-12 17:25:00,86.9,79.6,30.04,SW,217,9.0,11.0,79,0.00,,,0.00,Wunderground v.1.15,2013-08-12 21:25:00,
2013-08-12 17:35:00,86.7,78.6,30.04,SW,215,9.0,11.0,77,0.00,,,0.00,Wunderground v.1.15,2013-08-12 21:35:00,
2013-08-12 17:40:00,87.1,78.6,30.04,SW,216,8.0,11.0,76,0.00,,,0.00,Wunderground v.1.15,2013-08-12 21:40:00,
2013-08-12 17:50:00,87.2,79.1,30.04,SW,226,9.0,11.0,77,0.00,,,0.00,Wunderground v.1.15,2013-08-12 21:50:00,
2013-08-12 18:00:00,87.2,78.7,30.04,SW,228,9.0,11.0,76,0.00,,,0.00,Wunderground v.1.15,2013-08-12 22:00:00,
2013-08-12 18:10:00,87.3,79.2,30.04,WSW,257,8.0,8.0,77,0.00,,,0.00,Wunderground v.1.15,2013-08-12 22:10:00,
2013-08-12 18:15:00,87.2,78.7,30.04,SW,223,8.0,11.0,76,0.00,,,0.00,Wunderground v.1.15,2013-08-12 22:15:00,
2013-08-12 18:20:00,87.1,79.4,30.04,SW,219,7.0,11.0,78,0.00,,,0.00,Wunderground v.1.15,2013-08-12 22:20:00,
2013-08-12 18:30:00,86.9,79.2,30.04,SSW,213,9.0,11.0,78,0.00,,,0.00,Wunderground v.1.15,2013-08-12 22:30:00,
2013-08-12 18:35:00,86.9,79.6,30.03,SSW,211,8.0,11.0,79,0.00,,,0.00,Wunderground v.1.15,2013-08-12 22:35:00,
2013-08-12 18:40:00,86.8,79.5,30.04,SSW,213,8.0,11.0,79,0.00,,,0.00,Wunderground v.1.15,2013-08-12 22:40:00,
2013-08-12 18:50:00,86.7,79.8,30.04,SW,233,7.0,11.0,80,0.00,,,0.00,Wunderground v.1.15,2013-08-12 22:50:00,
2013-08-12 18:55:00,86.7,79.8,30.03,SSW,209,6.0,11.0,80,0.00,,,0.00,Wunderground v.1.15,2013-08-12 22:55:00,
2013-08-12 19:05:00,86.6,79.7,30.03,West,264,8.0,11.0,80,0.00,,,0.00,Wunderground v.1.15,2013-08-12 23:05:00,
2013-08-12 19:10:00,86.6,79.3,30.03,SSW,210,8.0,11.0,79,0.00,,,0.00,Wunderground v.1.15,2013-08-12 23:10:00,
2013-08-12 19:20:00,86.7,79.0,30.04,WSW,255,8.0,11.0,78,0.00,,,0.00,Wunderground v.1.15,2013-08-12 23:20:00,
2013-08-12 19:25:00,86.7,78.6,30.03,WSW,248,9.0,11.0,77,0.00,,,0.00,Wunderground v.1.15,2013-08-12 23:25:00,
2013-08-12 19:35:00,86.6,78.9,30.03,West,265,9.0,10.0,78,0.00,,,0.00,Wunderground v.1.15,2013-08-12 23:35:00,
2013-08-12 19:40:00,86.4,78.7,30.03,SW,232,9.0,9.0,78,0.00,,,0.00,Wunderground v.1.15,2013-08-12 23:40:00,
2013-08-12 19:50:00,86.3,78.6,30.03,WSW,240,8.0,8.0,78,0.00,,,0.00,Wunderground v.1.15,2013-08-12 23:50:00,
2013-08-12 19:55:00,86.3,79.0,30.03,WSW,255,8.0,11.0,79,0.00,,,0.00,Wunderground v.1.15,2013-08-12 23:55:00,
2013-08-12 20:05:00,86.0,78.3,30.03,SW,231,8.0,8.0,78,0.00,,,0.00,Wunderground v.1.15,2013-08-13 00:05:00,
2013-08-12 20:10:00,85.9,78.6,30.03,SW,222,8.0,8.0,79,0.00,,,0.00,Wunderground v.1.15,2013-08-13 00:10:00,
2013-08-12 20:15:00,85.9,78.6,30.03,SW,226,8.0,11.0,79,0.00,,,0.00,Wunderground v.1.15,2013-08-13 00:15:00,
2013-08-12 20:25:00,85.7,78.8,30.02,SW,227,7.0,11.0,80,0.00,,,0.00,Wunderground v.1.15,2013-08-13 00:25:00,
2013-08-12 20:30:00,85.6,78.7,30.02,SW,223,6.0,11.0,80,0.00,,,0.00,Wunderground v.1.15,2013-08-13 00:30:00,
2013-08-12 20:35:00,85.6,79.1,30.02,SW,232,6.0,11.0,81,0.00,,,0.00,Wunderground v.1.15,2013-08-13 00:35:00,
2013-08-12 20:45:00,85.4,78.9,30.03,SW,227,4.0,6.0,81,0.00,,,0.00,Wunderground v.1.15,2013-08-13 00:45:00,
2013-08-12 20:50:00,85.4,78.9,30.03,SSW,213,5.0,11.0,81,0.00,,,0.00,Wunderground v.1.15,2013-08-13 00:50:00,
2013-08-12 21:00:00,85.5,79.4,30.03,SW,225,5.0,11.0,82,0.00,,,0.00,Wunderground v.1.15,2013-08-13 01:00:00,
2013-08-12 21:05:00,85.5,79.4,30.04,SW,223,5.0,11.0,82,0.00,,,0.00,Wunderground v.1.15,2013-08-13 01:05:00,
2013-08-12 21:10:00,85.5,79.4,30.04,SW,228,7.0,7.0,82,0.00,,,0.00,Wunderground v.1.15,2013-08-13 01:10:00,
2013-08-12 21:20:00,85.6,79.5,30.03,SSW,213,7.0,11.0,82,0.00,,,0.00,Wunderground v.1.15,2013-08-13 01:20:00,
2013-08-12 21:25:00,85.6,79.1,30.03,SW,225,6.0,11.0,81,0.00,,,0.00,Wunderground v.1.15,2013-08-13 01:25:00,
2013-08-12 21:35:00,85.7,79.6,30.03,SW,227,6.0,11.0,82,0.00,,,0.00,Wunderground v.1.15,2013-08-13 01:35:00,
2013-08-12 21:40:00,85.7,79.6,30.03,SW,229,6.0,11.0,82,0.00,,,0.00,Wunderground v.1.15,2013-08-13 01:40:00,
2013-08-12 21:50:00,85.6,79.1,30.03,SW,221,7.0,11.0,81,0.00,,,0.00,Wunderground v.1.15,2013-08-13 01:50:00,
2013-08-12 21:55:00,85.6,79.1,30.03,SW,235,7.0,11.0,81,0.00,,,0.00,Wunderground v.1.15,2013-08-13 01:55:00,
2013-08-12 22:05:00,85.5,79.0,30.03,WSW,242,7.0,11.0,81,0.00,,,0.00,Wunderground v.1.15,2013-08-13 02:05:00,
2013-08-12 22:10:00,85.5,79.4,30.03,SSW,213,6.0,6.0,82,0.00,,,0.00,Wunderground v.1.15,2013-08-13 02:10:00,
2013-08-12 22:20:00,85.5,79.4,30.04,SW,217,8.0,11.0,82,0.00,,,0.00,Wunderground v.1.15,2013-08-13 02:20:00,
2013-08-12 22:25:00,85.5,79.4,30.04,WSW,238,8.0,11.0,82,0.00,,,0.00,Wunderground v.1.15,2013-08-13 02:25:00,
2013-08-12 22:30:00,85.4,79.3,30.04,SW,221,7.0,7.0,82,0.00,,,0.00,Wunderground v.1.15,2013-08-13 02:30:00,
2013-08-12 22:40:00,85.6,79.8,30.05,WSW,242,7.0,11.0,83,0.00,,,0.00,Wunderground v.1.15,2013-08-13 02:40:00,
2013-08-12 22:45:00,85.6,79.1,30.05,SW,235,8.0,11.0,81,0.00,,,0.00,Wunderground v.1.15,2013-08-13 02:45:00,
2013-08-12 22:55:00,85.6,79.5,30.05,West,263,8.0,11.0,82,0.00,,,0.00,Wunderground v.1.15,2013-08-13 02:55:00,
2013-08-12 23:05:00,85.6,79.5,30.05,WSW,247,8.0,11.0,82,0.00,,,0.00,Wunderground v.1.15,2013-08-13 03:05:00,
2013-08-12 23:15:00,85.6,79.1,30.05,WSW,243,8.0,11.0,81,0.00,,,0.00,Wunderground v.1.15,2013-08-13 03:15:00,
2013-08-12 23:20:00,85.6,79.1,30.05,WSW,254,8.0,8.0,81,0.00,,,0.00,Wunderground v.1.15,2013-08-13 03:20:00,
2013-08-12 23:30:00,85.6,79.5,30.04,SW,234,8.0,8.0,82,0.00,,,0.00,Wunderground v.1.15,2013-08-13 03:30:00,
2013-08-12 23:35:00,85.6,79.1,30.04,SW,227,9.0,9.0,81,0.00,,,0.00,Wunderground v.1.15,2013-08-13 03:35:00,
2013-08-12 23:45:00,85.5,79.0,30.04,WSW,258,9.0,11.0,81,0.00,,,0.00,Wunderground v.1.15,2013-08-13 03:45:00,
2013-08-12 23:55:00,85.5,79.0,30.03,WSW,252,8.0,11.0,81,0.00,,,0.00,Wunderground v.1.15,2013-08-13 03:55:00,